Regional Weather Roundup
Issued by NWS Upton, NY

Current Version | Previous Version | Graphics & Text | Print | Product List | Glossary Off
Versions: 1 2 3 4 5 6 7 8 9 10 11 12 13 14 15 16 17 18 19 20 21 22 23 24 25 26 27 28 29 30 31 32 33 34 35 36 37 38 39 40 41 42 43 44 45 46 47 48 49

000
ASUS41 KOKX 230305
RWROKX
REGIONAL WEATHER ROUNDUP
NATIONAL WEATHER SERVICE NEW YORK NY
1100 PM EDT TUE JUL 22 2014

NOTE: "FAIR" INDICATES FEW OR NO CLOUDS BELOW 12,000 FEET WITH NO
SIGNIFICANT WEATHER AND/OR OBSTRUCTIONS TO VISIBILITY.

NYZ071-072-176-178-NJZ106-104-230400-
NEW YORK CITY METRO AREA


CITY           SKY/WX    TMP DP  RH WIND       PRES   REMARKS
CENTRAL PARK   CLEAR     78  64  61 VRB5      30.08S
LAGUARDIA APRT PTCLDY    78  63  59 SW15      30.05S
KENNEDY INTL   PTCLDY    75  65  70 SW12      30.07F
NEWARK/LIBERTY PTCLDY    77  65  66 S13       30.06S
BRNX BOT. GARD   N/A     77  64  65 S8        30.07S
TETERBORO      CLEAR     81  65  58 S13G20    30.04S
$$

NYZ177-179-078>081-230400-
LONG ISLAND NEW YORK

CITY           SKY/WX    TMP DP  RH WIND       PRES   REMARKS
FARMINGDALE    CLEAR     73  62  68 SW15      30.07F
ISLIP          CLEAR     74  64  71 SW12      30.05F
SHIRLEY        CLEAR     73  65  75 SW10      30.07F
WESTHAMPTON    CLEAR     72  66  81 SW8       30.09F
MONTAUK POINT    N/A     73  64  73 SW9G22    30.07F
$$

NYZ052-065-067-230400-
HUDSON VALLEY

CITY           SKY/WX    TMP DP  RH WIND       PRES   REMARKS
WHITE PLAINS   CLEAR     73  66  78 VRB3      30.05F
NEWBURGH       CLEAR     77  70  78 W8        30.05S
MONTGOMERY     CLEAR     72  68  87 S5        30.03F
POUGHKEEPSIE   CLEAR     77  69  76 SE3       30.01F
ALBANY         PTCLDY    79  70  74 S7        29.98F
$$

NJZ001-105-106-008-010-013-015-019>022-104-230400-
NEW JERSEY

CITY           SKY/WX    TMP DP  RH WIND       PRES   REMARKS
NEWARK/LIBERTY PTCLDY    77  65  66 S13       30.06S
TETERBORO      CLEAR     81  65  58 S13G20    30.04S
CALDWELL       CLEAR     79  64  60 SW5       30.06S
MORRISTOWN     CLEAR     79  66  65 S3        30.06S
SOMERVILLE     CLEAR     77  66  68 S5        30.05S
LINDEN         FAIR      78  64  62 SW5       30.08S
SUSSEX         CLEAR     74  69  85 CALM      30.05F
ANDOVER          N/A     72  69  90 CALM      30.07S
TRENTON        CLEAR     75  63  66 S8        30.08S
MILLVILLE      PTCLDY    71  67  87 CALM      30.10F
ATLANTIC CITY  PTCLDY    72  68  87 S5        30.10F
WRIGHTSTOWN    CLEAR     71  63  76 SW6       30.07F
TOMS RIVER     CLEAR     72  66  83 SW5       30.10S
BELMAR         CLEAR     73  59  60 SW10      30.09F
$$

PAZ047>061-062-071-230400-
EASTERN PENNSYLVANIA

CITY           SKY/WX    TMP DP  RH WIND       PRES   REMARKS
PHILADELPHIA   CLEAR     76  56  49 SW7       30.09F
ALLENTOWN      CLEAR     77  68  73 SW8       30.07S
SCRANTON       CLEAR     77  68  73 VRB6      30.05F
$$

CTZ002-004>006-009-010-012-RIZ004-006-007-MAZ004-011-015-230400-
SOUTHERN NEW ENGLAND
 IN CT

CITY           SKY/WX    TMP DP  RH WIND       PRES   REMARKS
BRADLEY INTL   CLEAR     77  66  68 S8        30.02S
HARTFORD       CLEAR     74  65  73 S5        30.03F
DANBURY        CLEAR     73  64  73 CALM      30.06F
WTRBRY/OXFORD  CLEAR     72  63  73 SW5       30.08S
BRIDGEPORT     CLEAR     76  66  71 SW9       30.05F
MERIDEN        CLEAR     73  64  73 S6        30.05S
NEW HAVEN      CLEAR     76  65  68 SW3       30.05F
CHESTER        FAIR      72  64  78 SW6       30.07S
GROTON         CLEAR     71  64  78 W7        30.05F
WILLIMANTIC    CLEAR     74  65  73 S5        30.05F

 IN RI

CITY           SKY/WX    TMP DP  RH WIND       PRES   REMARKS
PROVIDENCE     CLEAR     74  64  71 SW10      30.04F
BLOCK ISLAND   CLEAR     70  64  83 SW13      30.06F
WESTERLY       CLEAR     73  64  73 SW7       30.06F

 IN MA

CITY           SKY/WX    TMP DP  RH WIND       PRES   REMARKS
BOSTON         PTCLDY    77  67  71 SW13      30.00F
WORCESTER      CLEAR     72  67  84 SW13      30.05F
WESTFIELD      CLEAR     77  68  73 S9        30.01F
PROVINCETOWN   CLEAR     70  66  88 SW12      30.03F
NANTUCKET      CLEAR     67  64  90 SW8       30.07F
$$

ANZ330-335-338-340-345-350-353-355-230400-
COASTAL MARINE OBSERVATIONS


STATION/POSITION TIME  SKY/WX   TEMP    WIND        PRES    VSBY  WAVE
                                AIR SEA DIR/SP/G                  HT/PER
                 (UTC)          (F)     (DEG/KT/KT) (MB)    (MI)  (FT/S)
NY HARB ENTRANCE NOT AVBL
4S FIRE IS       NOT AVBL
23SW MTP         0300            71 70              1017.6          3/ 4
HUDSON CANYON    0300            73 74  220/ 10/ 12 1019.1          2/ 7
EXECUTION ROCKS  0300            76 71  210/ 14/ 16   N/A
WESTERN LI SOUND 0300            76     200/ 12/ 16   N/A           1
CENTRAL LI SOUND 0300            73 73  210/ 16/ 19   N/A           2/ 4
EASTERN LI SOUND 0200            69 65  280/  4/  6   N/A
ROBBINS REEF     0300            77     220/ 14/ 20   N/A
$$


>>>>>>>>>>>>>>>>>>>>>>>>>>>> KEY <<<<<<<<<<<<<<<<<<<<<<<<<<<
>                                                          <
>     SKY/WX - SKY CONDITION/PRESENT WEATHER               <
>     TMP    - TEMPERATURE IN FAHRENHEIT                   <
>     DP     - DEWPOINT IN FAHRENHEIT                      <
>     RH     - RELATIVE HUMIDITY IN PERCENT                <
>     WIND   - DIRECTION AND SPEED IN MPH                  <
>     PRES   - MEAN SEA LEVEL PRESSURE IN INCHES OF HG     <
>     WCI    - WIND CHILL INDEX                            <
>     VSB    - VISIBILITY IN MILES                         <
>     HX     - HEAT INDEX                                  <
>     TC     - TEMPERATURE IN CELSIUS                      <
>     VRB    - VARIABLE WIND DIRECTION                     <
>                                                          <
>>>>>>>>>>>>>>>>>>>>>>>>>>>> KEY <<<<<<<<<<<<<<<<<<<<<<<<<<<





USA.gov is the U.S. government's official web portal to all federal, state and local government web resources and services.